{"data":{"norad_id":54100,"epoch":"2026-09-20T22:00:03.000096Z","epoch_age_seconds":53930,"freshness":"FRESH","line1":"1 54100U 22136BB  26263.91670139  .00008489  00000+0  35231-3 0  9994","line2":"2 54100  53.1614 175.7398 0002349  88.1548 338.3509 15.24664062  5444","mean_motion":15.24664062,"eccentricity":0.0002349,"inclination_deg":53.1614,"raan_deg":175.7398,"arg_perigee_deg":88.1548,"mean_anomaly_deg":338.3509,"bstar":0.00035231,"rev_number":544,"period_min":94.44703498232,"perigee_km":490.18062928194,"apogee_km":493.40812304246,"semimajor_km":6869.9313761622,"source":"CELESTRAK","updated_at":"2026-09-21T09:00:33.085507Z"}}